Vero Beach, FL

9:27 PM EDT on July 23, 2017 (GMT -0400)
Vero Beach Municipal

Weather History for KVRB - October, 2012

Change the Weather History Date:

Sunday, October 21, 2012

  Actual Average Record
Temperature  
Mean Temperature 71 °F 76 °F  
Max Temperature 82 °F 83 °F 89 °F (1988)
Min Temperature 59 °F 68 °F 46 °F (1989)
Degree Days  
Heating Degree Days 0 0  
Month to date heating degree days 0 0  
Since 1 July heating degree days 0 0  
Cooling Degree Days 6 11  
Month to date cooling degree days 292 266  
Year to date cooling degree days 3277 3033  
Growing Degree Days 22 (Base 50)    
Moisture  
Dew Point 59 °F    
Average Humidity 68    
Maximum Humidity 93    
Minimum Humidity 42    
Precipitation  
Precipitation 0.00 in 0.14 in 1.56 in (2014)
Month to date precipitation 3.04 3.71  
Year to date precipitation 43.88 45.20  
Sea Level Pressure  
Sea Level Pressure 30.00 in    
Wind  
Wind Speed 7 mph (NNE)    
Max Wind Speed 15 mph    
Max Gust Speed 18 mph    
Visibility 10 miles    
Events      
T = Trace of Precipitation, MM = Missing Value Source: NWS Daily Summary

Daily Weather History Graph

Daily Weather History Graph

Search for Another Location

Airport or City:

Trip Planner

Search our weather history database for the weather conditions in past years. The results will help you decide how hot, cold, wet, or windy it might be!

Date:

Astronomy

Oct. 21, 2012 Rise Set
Actual Time 7:25 AM EDT 6:46 PM EDT
Civil Twilight 7:01 AM EDT 7:10 PM EDT
Nautical Twilight 6:34 AM EDT 7:37 PM EDT
Astronomical Twilight 6:07 AM EDT 8:04 PM EDT
Moon 1:35 PM EDT (10/21) No Moon Set
Length of Visible Light 12h 08m
Length of Day
11h 20m
Waxing Crescent, 45% of the Moon is Illuminated
Oct 21
Waxing Crescent
Oct 21
First Quarter
Oct 29
Full
Nov 6
Last Quarter
Nov 13
New

Hourly Weather History & Observations

Time (EDT) Temp. Heat Index Dew Point Humidity Pressure Visibility Wind Dir Wind Speed Gust Speed Precip Events Conditions
12:53 AM 63.0 °F - 60.1 °F 90% 29.95 in 10.0 mi Calm Calm - N/A   Clear
1:53 AM 61.0 °F - 57.9 °F 90% 29.94 in 10.0 mi Calm Calm - N/A   Clear
2:53 AM 62.1 °F - 59.0 °F 90% 29.94 in 10.0 mi Calm Calm - N/A   Clear
3:53 AM 63.0 °F - 59.0 °F 87% 29.95 in 10.0 mi NNW 6.9 mph - N/A   Clear
4:53 AM 62.1 °F - 57.9 °F 86% 29.95 in 10.0 mi NNW 5.8 mph - N/A   Clear
6:53 AM 61.0 °F - 57.0 °F 87% 29.98 in 10.0 mi NNW 4.6 mph - N/A   Clear
7:53 AM 61.0 °F - 57.9 °F 90% 30.00 in 10.0 mi NNW 6.9 mph - N/A   Clear
8:53 AM 70.0 °F - 63.0 °F 78% 30.01 in 10.0 mi North 4.6 mph - N/A   Clear
9:53 AM 78.1 °F - 61.0 °F 56% 30.03 in 10.0 mi North 6.9 mph - N/A   Clear
10:53 AM 80.1 °F 80.1 °F 55.0 °F 42% 30.04 in 10.0 mi North 9.2 mph 17.3 mph N/A   Clear
11:53 AM 81.0 °F 80.8 °F 55.9 °F 42% 30.04 in 10.0 mi NNE 12.7 mph 16.1 mph N/A   Clear
12:53 PM 81.0 °F 81.0 °F 57.0 °F 44% 30.03 in 10.0 mi NE 9.2 mph - N/A   Clear
1:53 PM 81.0 °F 81.6 °F 60.1 °F 49% 30.01 in 10.0 mi NE 12.7 mph - N/A   Clear
2:53 PM 82.0 °F 82.1 °F 59.0 °F 45% 29.99 in 10.0 mi NE 9.2 mph - N/A   Clear
3:53 PM 81.0 °F 81.1 °F 57.9 °F 45% 29.98 in 10.0 mi NNE 9.2 mph 18.4 mph N/A   Clear
4:53 PM 81.0 °F 81.6 °F 60.1 °F 49% 29.98 in 10.0 mi North 8.1 mph - N/A   Clear
5:53 PM 80.1 °F 81.2 °F 62.1 °F 54% 29.99 in 10.0 mi NNE 8.1 mph - N/A   Scattered Clouds
6:53 PM 75.9 °F - 61.0 °F 60% 30.00 in 10.0 mi NNE 6.9 mph - N/A   Partly Cloudy
7:53 PM 75.0 °F - 62.1 °F 64% 30.01 in 10.0 mi NE 5.8 mph - N/A   Scattered Clouds
8:53 PM 77.0 °F - 62.1 °F 60% 30.02 in 10.0 mi NE 6.9 mph - N/A   Mostly Cloudy
9:53 PM 75.0 °F - 61.0 °F 62% 30.04 in 10.0 mi NE 6.9 mph - N/A   Partly Cloudy
10:53 PM 75.0 °F - 61.0 °F 62% 30.04 in 10.0 mi NE 6.9 mph - N/A   Clear
11:53 PM 75.0 °F - 61.0 °F 62% 30.04 in 10.0 mi NE 6.9 mph - N/A   Scattered Clouds